Location: Foots Cray
(51.4000°N, 0.1167°E)
Time: 23:30:15
(UTC+00:00)

Okean 1-7 Rocket - Pass Details

Date: 15 May 2026
Orbit: 611 x 641 km, 82.5° (Epoch: 11 June)

Event Time Altitude Azimuth Distance (km) Brightness Sun altitude
Rises 21:40:29 0° 348° (NNW) 2,927 8.4 -13.6°
Reaches altitude 10° 21:42:44 10° 347° (NNW) 2,020 7.4 -13.8°
Maximum altitude 21:47:12 75° 263° (W) 660 3.7 -14.1°
Enters shadow 21:50:21 19° 179° (S) 1,499 5.0 -14.4°
